This is the latest recevied weather packets stored in our database for station/object KM4CBK. If no packets are shown the sender has not sent any weather packets the latest 10 day(s).
| Time | Temp. | Humidity | Pressure | Rain* | Wind** | Luminosity | Snow |
|---|---|---|---|---|---|---|---|
| 1777474315 | 18.89° C | 99% | 1013.7 hPa | 0.51 mm | - | 91 W/m² | - |
| 1777474011 | 18.89° C | 99% | 1013.8 hPa | 0.51 mm | - | 139 W/m² | - |
| 1777473710 | 18.89° C | 99% | 1013.1 hPa | 0 mm | - | 116 W/m² | - |
| 1777473405 | 18.33° C | 99% | 1012.6 hPa | 0 mm | - | 77 W/m² | - |
| 1777473101 | 18.89° C | 99% | 1013.6 hPa | 0.51 mm | - | 69 W/m² | - |
| 1777472798 | 18.33° C | 99% | 1013.6 hPa | 0.51 mm | - | 93 W/m² | - |
| 1777472495 | 18.89° C | 99% | 1013.6 hPa | 0 mm | - | 126 W/m² | - |
| 1777472192 | 18.33° C | 99% | 1013.3 hPa | 1.27 mm | - | 120 W/m² | - |
| 1777471887 | 18.33° C | 99% | 1013.7 hPa | 1.27 mm | - | 77 W/m² | - |
| 1777471584 | 18.33° C | 99% | 1013.5 hPa | 0.51 mm | - | 46 W/m² | - |
| 1777471281 | 18.33° C | 99% | 1013.7 hPa | 1.27 mm | - | 43 W/m² | - |
| 1777470977 | 18.33° C | 99% | 1014.4 hPa | 1.78 mm | - | 35 W/m² | - |
| 1777470675 | 17.78° C | 99% | 1014.9 hPa | 3.05 mm | - | 38 W/m² | - |
| 1777470370 | 17.78° C | 99% | 1015.1 hPa | 3.56 mm | - | 23 W/m² | - |
| 1777470067 | 17.78° C | 99% | 1015.2 hPa | 1.78 mm | - | 18 W/m² | - |
| 1777469763 | 17.78° C | 99% | 1015.1 hPa | 0.51 mm | - | 18 W/m² | - |
| 1777469459 | 17.78° C | 99% | 1015.3 hPa | 0.51 mm | - | 12 W/m² | - |
| 1777469154 | 17.78° C | 99% | 1015.5 hPa | 0.51 mm | - | 9 W/m² | - |
| 1777468854 | 17.78° C | 99% | 1016 hPa | 0 mm | - | 10 W/m² | - |
| 1777468551 | 17.78° C | 99% | 1015.9 hPa | 0 mm | - | 11 W/m² | - |
| 1777468247 | 17.78° C | 99% | 1015.5 hPa | 0 mm | - | 23 W/m² | - |
| 1777467944 | 17.78° C | 99% | 1015.1 hPa | 0 mm | - | 23 W/m² | - |
| 1777467639 | 17.78° C | 99% | 1015 hPa | 0 mm | - | 35 W/m² | - |
| 1777467335 | 17.78° C | 99% | 1014.6 hPa | 0 mm | - | 42 W/m² | - |
| 1777467031 | 17.78° C | 99% | 1014.7 hPa | 0 mm | - | 27 W/m² | - |
* Rain latest hour (hover to see other rain measurements)
** Current wind speed in m/s (hover to see current wind gust speed)